CENTISPACE-1 S7

导读

CENTISPACE-1 S7别名微力空间-1 S7、向日葵7,是中国在2025年1月13日发射的低轨导航增强卫星,隶属于CENTISPACE-1星座系统。该星座最终将部署190颗低轨卫星,可服务自动驾驶、精准农业、地理信息系统建设,同时支持应急响应与灾害救援,推动商业卫星应用落地。

Basic Information
目录编号:
62576
目录名称:
CENTISPACE-1 S7
国际标识:
2025-007B
轨道中心:
EARTH
卫星名称:
CENTISPACE-1 S7
卫星全名:
CENTISPACE-1 S7
卫星状态:
在轨 (已飞行600 天)
发射日期:
2025-01-13 UTC
国别 :
中国 (CN)
星等 :
--
Orbit Information
数据来源 国际轨道数据 AOE轨道数据
星历时间 2026-09-05T12:02:59+0800
5小时前
查看轨道信息
2026-09-01T10:00:00+0800
4天前
查看轨道信息
半长轴 7339.821km 7339.832km
偏心率 0.0011152 0.0010902
轨道倾角 54.978° 54.977°
近地点辐角 214.230° 207.904°
升交点赤经 12.258° 26.549°
平近点角 145.794° 358.662°
近地点 953.498km 953.693km
远地点 969.87km 969.697km
周期 104.301分钟 104.301分钟
每日圈数 13.806215 13.806182
Detailed Information
使用方式:
暂无
2D Orbit Map
3D Orbit Map
Orbit Altitude Analysis Chart
Orbit Inclination Analysis Chart
Orbit Comprehensive Analysis Chart
View Comprehensive Chart
Conjunction Data List
Event ID Objects TCA Miss Dist (km) Collision Risk Probability Collision Risk Index (CRI) Action
CDM_260901-103805-458706-257621
2026-09-01T
10:38:01+0000
2.997 km
极远距离
1.316045E-6 低风险 0.37
CDM_260906-124706-257606-598222
SDA_1672 (65982)
2026-09-06T
12:47:12+0000
2.912 km
极远距离
1.258234E-6 低风险 0.37
CDM_260906-044701-099206-257623
SL-8 R/B (10992)
2026-09-06T
04:47:51+0000
2.771 km
极远距离
1.16149E-6 低风险 0.36
CDM_260907-050301-593006-257622
2026-09-07T
05:03:57+0000
2.872 km
极远距离
1.002777E-6 低风险 0.35
CDM_260905-033606-257608-159921
2026-09-05T
03:36:41+0000
2.653 km
极远距离
9.350147E-7 极低风险 0.34